Flag for Canada Weather past 2 weeks in St. John's, Newfoundland and Labrador, Canada

Now
50 °F

Partly sunny.


Feels Like: 43 °F
Forecast: 54 / 58 °F
Wind: 25 mph from North

Location: St. John's

Current Time: Aug 29, 2014 at 5:54:29 PM

Latest Report: Aug 29, 2014 at 4:30 PM


Visibility: 15 mi

Pressure: 29.75 "Hg

Humidity: 82%

Dew point: 45 °F

Location of St. John'sLocation

Historic Weather in St. John's — Graph

°F

St. John's temperature yesterday

Maximum temperature yesterday: 64 °F (at 12:30 AM)
Minimum temperature yesterday: 52 °F (at 5:30 PM)
Average temperature yesterday: 55 °F

Past Weeks' High & Low Weather Summary

 TemperatureHumidityPressure
High75 °F (Aug 27, 1:30 PM)100% (Aug 14, 5:30 PM)30.22 "Hg (Aug 14, 5:30 PM)
Low50 °F (Aug 25, 12:30 AM)61% (Aug 25, 2:30 PM)29.59 "Hg (Aug 29, 7:30 AM)
Average59 °F91%29.96 "Hg
* Reported Aug 14 4:30 PM — Aug 29 4:30 PM, St. John's, Weather by CustomWeather, © 2014

Note: Actual official high and low records may vary slightly from our data, if they occured in-between our weather recording intervals... More about our weather records

Advertising

St. John's weather history for previous 24 hours

 ConditionsComfort  
Time TempWeatherWind HumidityBarometerVisibility
4:30 PM
Aug 29
50 °FPartly sunny.25 mph82%29.75 "Hg15 mi
3:30 PM50 °FMore clouds than sun.23 mph88%29.72 "Hg15 mi
2:30 PM50 °FMore clouds than sun.28 mph94%29.68 "Hg15 mi
2:19 PM50 °FOvercast.18 mph94%29.68 "Hg15 mi
1:30 PM50 °FLight rain. More clouds than sun.28 mph100%29.65 "Hg10 mi
12:30 PM50 °FLight rain. Fog.25 mph100%29.65 "Hg3 mi
11:30 AM50 °FLight rain. Fog.25 mph100%29.63 "Hg3 mi
10:30 AM50 °FLight rain. Fog.22 mph100%29.62 "Hg2 mi
9:30 AM50 °FLight rain. Fog.29 mph100%29.60 "Hg1 mi
8:30 AM52 °FDrizzle. Fog.28 mph100%29.59 "Hg1 mi
7:30 AM52 °FCool.23 mph100%29.59 "Hg0 mi
6:30 AM52 °FDrizzle. Fog.22 mph100%29.59 "Hg2 mi
6:18 AM52 °FDrizzle. Fog.21 mph100%29.59 "Hg2 mi
5:30 AM52 °FDrizzle. Low clouds.23 mph100%29.60 "Hg8 mi
4:30 AM52 °FDrizzle. Fog.18 mph100%29.60 "Hg2 mi
3:30 AM54 °FLight rain. Fog.17 mph100%29.65 "Hg2 mi
2:30 AM54 °FLight rain. Fog.22 mph100%29.65 "Hg1 mi
1:30 AM54 °FLight rain. Fog.17 mph100%29.69 "Hg1 mi
12:30 AM54 °FLight rain. Fog.18 mph100%29.72 "Hg1 mi
11:30 PM
Aug 28
54 °FCool.17 mph100%29.73 "Hg1 mi
10:30 PM54 °FLight rain. Fog.13 mph100%29.74 "Hg3 mi
9:30 PM54 °FLight rain. Fog.14 mph100%29.75 "Hg1 mi
8:30 PM54 °FLight rain. Fog.15 mph100%29.76 "Hg2 mi
7:30 PM54 °FLight rain. Fog.16 mph100%29.76 "Hg1 mi
6:30 PM54 °FDrizzle. Fog.17 mph100%29.78 "Hg2 mi
6:21 PM54 °FLight rain. Fog.13 mph100%29.78 "Hg2 mi
5:30 PM52 °FRain. Fog.16 mph100%29.80 "Hg1 mi
Weather by CustomWeather, © 2014

See weather overviewHow to use our weather pages